Miscellaneous Local Product
Issued by NWS Hastings, NE

Current Version | Previous Version | Text Only | Print | Product List | Glossary On
Versions: 1 2 3 4 5 6 7 8 9 10 11 12 13 14 15 16 17 18 19 20 21 22 23 24 25 26 27 28 29 30 31 32 33 34 35 36 37 38 39 40 41 42 43 44 45 46 47 48 49 50
000
AXUS43 KGID 042002
MISGRI

GID CWA HOURLY WEATHER ROUNDUP
NATIONAL WEATHER SERVICE HASTINGS NE
300 PM CDT MON MAY 04 2015

NOTE: "FAIR" INDICATES FEW OR NO CLOUDS BELOW 12,000 FEET WITH NO
SIGNIFICANT WEATHER AND/OR OBSTRUCTIONS TO VISIBILITY.

...SOUTH CENTRAL NEBRASKA...

CITY           SKY/WX    TMP DP  RH WIND       PRES   REMARKS
GRAND ISLAND   CLOUDY    54  50  86 NE10      30.11S
HASTINGS       CLOUDY    56  50  80 NE15G23   30.09F
KEARNEY        CLOUDY    54  45  71 NE20      30.11S
ORD            CLOUDY    63  40  42 E10G21    30.11S
YORK           RAIN      54  52  94 NE17      30.11S
AURORA         DRIZZLE   55  51  86 NE16G22   30.10S
LEXINGTON      DRIZZLE   51  48  89 NE14      30.14R
HOLDREGE       CLOUDY    55  48  77 NE13      30.10S
HEBRON         CLOUDY    65  56  73 NE13      30.06R

...NEBRASKA PANHANDLE...

CITY           SKY/WX    TMP DP  RH WIND       PRES   REMARKS
CHADRON        CLOUDY    52  37  56 E8        30.17F
ALLIANCE       CLOUDY    56  32  40 E12       30.14F
SCOTTSBLUFF    CLOUDY    59  36  42 SE16G22   30.13F
SIDNEY         PTSUNNY   62  41  46 SE14      30.13F

...WESTERN AND NORTH CENTRAL NEBRASKA...

CITY           SKY/WX    TMP DP  RH WIND       PRES   REMARKS
VALENTINE      CLOUDY    66  24  20 E16G24    30.16F
AINSWORTH      CLOUDY    69  23  17 E12G22    30.14F
ONEILL         CLOUDY    66  31  27 E15G22    30.15S
BROKEN BOW     LGT RAIN  59  39  47 E9        30.13R
IMPERIAL       LGT RAIN  51  46  83 NE10      30.14S
NORTH PLATTE   LGT RAIN  49  43  80 E15       30.14S
MCCOOK         CLOUDY    57  44  62 NE14      30.12R

...EASTERN NEBRASKA...

CITY           SKY/WX    TMP DP  RH WIND       PRES   REMARKS
NORFOLK        CLOUDY    64  42  44 E15       30.13R
SO SIOUX CITY  LGT RAIN  66  48  52 E10       30.14S
TEKAMAH        LGT RAIN  63  52  67 NE9       30.11R
COLUMBUS       CLOUDY    57  48  72 NE12      30.14S
ALBION         LGT RAIN  56  47  72 NE12      30.15R
OMAHA EPPLEY   LGT RAIN  66  58  75 E5        30.09R
OFFUTT AFB     LGT RAIN  66  60  80 E6        30.07F
MILLARD        RAIN      65  58  78 E3        30.09S
LINCOLN        CLOUDY    60  55  83 N12       30.10S
NEBRASKA CITY  LGT RAIN  63  60  89 NE9       30.08S
BEATRICE       CLOUDY    67  60  77 NE12      30.05R
FALLS CITY     LGT RAIN  74  62  66 NE10      30.01F

...NORTHERN KANSAS...

CITY           SKY/WX    TMP DP  RH WIND       PRES   REMARKS
GOODLAND       CLOUDY    62  47  57 NE6       30.10F
HILL CITY      PTSUNNY   69  55  60 CALM      30.06F
NORTON         CLOUDY    63  45  51 NE6       30.08S
PHILLIPSBURG   SUNNY     70  55  60 N10       30.05F
SMITH CENTER   MOSUNNY   66  57  72 NE12      30.05F
HAYS           PTSUNNY   75  54  46 NE3       30.02F
RUSSELL        CLOUDY    71  56  58 N10       30.00F
CONCORDIA      CLOUDY    72  59  63 NW8       30.02S
SALINA         CLOUDY    82  57  42 S7        29.98F
TOPEKA         MOSUNNY   84  61  45 S15       29.99F



USA.gov is the U.S. government's official web portal to all federal, state and local government web resources and services.